FW8055 Weather Reports


time (UTC)temp
C
wind
direction
speed
KPH
gust
KPH
rain 1hr
cm
rain 24hr
cm
rain mn
cm
humidity
%
barometer
mb
20260508080048 9 0 0.0 0.0 0.00 0.00 0.00 82 1018.5
20260508074544 10 0 0.0 0.0 0.00 0.00 0.00 80 1018.4
20260508073046 10 0 0.0 0.0 0.00 0.00 0.00 79 1018.3
20260508071545 11 0 0.0 0.0 0.00 0.00 0.00 77 1018.2
20260508070050 12 0 0.0 0.0 0.00 0.00 0.00 77 1018.0
20260508064543 12 0 0.0 0.0 0.00 0.00 0.00 76 1017.9
20260508063054 13 0 0.0 3.2 0.00 0.00 0.00 73 1018.0
20260508061549 13 0 0.0 1.6 0.00 0.00 0.00 73 1018.1
20260508060100 13 0 0.0 0.0 0.00 0.00 0.00 70 1018.1
20260508054633 13 0 0.0 1.6 0.00 0.00 0.00 68 1018.1
20260508053052 13 0 0.0 3.2 0.00 0.00 0.00 67 1017.9
20260508051549 13 0 0.0 3.2 0.00 0.00 0.00 67 1017.8
20260508050050 14 0 0.0 0.0 0.00 0.00 0.00 73 1017.8
20260508044547 14 0 0.0 1.6 0.00 0.00 0.00 77 1017.7
20260508043042 15 0 0.0 3.2 0.00 0.00 0.00 77 1017.5
20260508041545 15 0 0.0 0.0 0.00 0.00 0.00 75 1017.3
20260508040049 15 0 0.0 1.6 0.00 0.00 0.00 74 1017.1
20260508034552 16 0 0.0 1.6 0.00 0.00 0.00 73 1016.7
20260508033047 17 0 0.0 1.6 0.00 0.00 0.00 70 1016.4
20260508031552 17 0 0.0 0.0 0.00 0.00 0.00 67 1016.1
20260508030047 18 0 0.0 0.0 0.00 0.00 0.00 64 1016.0
20260508024554 18 0 0.0 0.0 0.00 0.00 0.00 58 1015.9
20260508023045 20 299 0.0 1.6 0.00 0.00 0.00 56 1015.9
20260508021540 20 299 0.0 1.6 0.00 0.00 0.00 54 1015.9
20260508020048 21 0 0.0 1.6 0.00 0.00 0.00 52 1016.0
20260508014542 22 0 0.0 4.8 0.00 0.00 0.00 49 1016.1
20260508013046 22 32 0.0 1.6 0.00 0.00 0.00 49 1016.3
20260508011542 22 34 1.6 4.8 0.00 0.00 0.00 46 1016.4
20260508010052 22 92 0.0 6.4 0.00 0.00 0.00 44 1016.6
20260508004548 22 26 0.0 6.4 0.00 0.00 0.00 45 1016.7
20260508003053 21 0 0.0 4.8 0.00 0.00 0.00 46 1016.8
20260508001543 21 0 1.6 4.8 0.00 0.00 0.00 43 1016.8
20260508000049 21 69 3.2 6.4 0.00 0.00 0.00 47 1017.0
20260507234549 21 19 3.2 8.0 0.00 0.00 0.00 46 1017.3
20260507233053 21 5 1.6 8.0 0.00 0.00 0.00 51 1017.4
20260507231551 21 53 0.0 8.0 0.00 0.00 0.00 55 1017.5
20260507230047 21 30 3.2 11.3 0.00 0.00 0.00 57 1017.6
20260507224549 21 259 1.6 12.9 0.00 0.00 0.00 57 1017.9
20260507223048 21 39 1.6 9.7 0.00 0.00 0.00 60 1018.0
20260507221544 20 0 3.2 9.7 0.00 0.00 0.00 59 1018.3
20260507220046 20 34 1.6 11.3 0.00 0.00 0.00 60 1018.5
20260507214548 19 18 3.2 9.7 0.00 0.00 0.00 62 1018.6
20260507213048 18 96 4.8 11.3 0.00 0.00 0.00 63 1018.7
20260507211552 18 360 1.6 11.3 0.00 0.00 0.00 63 1018.9
20260507210041 18 17 3.2 8.0 0.00 0.00 0.00 64 1019.1
20260507204542 18 51 3.2 9.7 0.00 0.00 0.00 66 1019.4
20260507203046 17 38 1.6 8.0 0.00 0.00 0.00 65 1019.5
20260507201546 17 229 1.6 8.0 0.00 0.00 0.00 69 1019.7
20260507200046 17 0 1.6 8.0 0.00 0.00 0.00 71 1019.8
20260507194548 16 201 1.6 8.0 0.00 0.00 0.00 70 1020.0
20260507193043 16 0 0.0 6.4 0.00 0.00 0.00 72 1020.0
20260507191542 16 0 1.6 6.4 0.00 0.00 0.00 74 1020.1
20260507190047 15 19 1.6 6.4 0.00 0.00 0.00 75 1020.2
20260507184547 15 36 0.0 4.8 0.00 0.00 0.00 76 1020.3
20260507183050 14 17 0.0 4.8 0.00 0.00 0.00 78 1020.3
20260507181547 14 0 0.0 4.8 0.00 0.00 0.00 77 1020.4
20260507180052 14 352 0.0 4.8 0.00 0.00 0.00 79 1020.4
20260507174605 13 5 0.0 4.8 0.00 0.00 0.00 81 1020.6
20260507173047 13 42 1.6 4.8 0.00 0.00 0.00 81 1020.6
20260507171602 13 0 0.0 3.2 0.00 0.00 0.00 83 1020.6
20260507170046 12 0 0.0 3.2 0.00 0.00 0.00 84 1020.5
20260507164551 12 360 0.0 3.2 0.00 0.00 0.00 84 1020.5
20260507163051 12 294 0.0 4.8 0.00 0.00 0.00 86 1020.6
20260507161545 12 16 0.0 4.8 0.00 0.00 0.00 86 1020.5
20260507160049 12 16 0.0 4.8 0.00 0.00 0.00 87 1020.8
20260507154547 11 0 0.0 4.8 0.00 0.00 0.00 88 1020.9
20260507153053 11 31 0.0 3.2 0.00 0.00 0.00 88 1020.8
20260507151544 11 5 0.0 4.8 0.00 0.00 0.00 89 1020.8
20260507150043 11 0 0.0 3.2 0.00 0.00 0.00 90 1020.7
20260507144552 11 0 0.0 0.0 0.00 0.00 0.00 91 1020.8
20260507143045 11 0 0.0 3.2 0.00 0.00 0.00 90 1020.7
20260507141547 11 0 0.0 3.2 0.00 0.00 0.00 90 1020.7
20260507140101 11 0 0.0 0.0 0.00 0.00 0.00 90 1020.4
20260507134545 11 0 0.0 0.0 0.00 0.00 0.00 90 1020.4
20260507133043 11 0 0.0 0.0 0.00 0.00 0.00 90 1020.5
20260507131543 11 0 0.0 1.6 0.00 0.00 0.00 90 1020.4
20260507124558 11 0 0.0 0.0 0.00 0.00 0.00 90 1020.6
20260507123043 11 0 0.0 0.0 0.00 0.00 0.00 90 1020.6
20260507121545 11 0 0.0 0.0 0.00 0.00 0.00 90 1020.7
20260507120043 11 0 0.0 0.0 0.00 0.00 0.00 89 1020.8
20260507114604 11 0 0.0 0.0 0.00 0.00 0.00 89 1020.9
20260507113047 11 0 0.0 0.0 0.00 0.00 0.00 89 1021.0
20260507111545 11 0 0.0 0.0 0.00 0.00 0.00 88 1021.0
20260507110048 11 0 0.0 1.6 0.00 0.00 0.00 88 1021.0
20260507104552 11 29 0.0 1.6 0.00 0.00 0.00 87 1021.1
20260507103044 11 0 0.0 4.8 0.00 0.00 0.00 87 1021.2
20260507101542 11 0 0.0 0.0 0.00 0.00 0.00 85 1021.2
20260507100047 11 0 0.0 1.6 0.00 0.00 0.00 85 1021.3
20260507094544 11 0 0.0 1.6 0.00 0.00 0.00 84 1021.4
20260507093051 11 0 0.0 0.0 0.00 0.00 0.00 84 1021.5
20260507091552 11 0 0.0 3.2 0.00 0.00 0.00 84 1021.7
20260507090047 11 0 0.0 3.2 0.00 0.00 0.00 84 1021.7
20260507084547 11 28 0.0 3.2 0.00 0.00 0.00 84 1021.8
20260507083044 11 0 0.0 3.2 0.00 0.00 0.00 84 1021.9
20260507081543 11 0 0.0 3.2 0.00 0.00 0.00 84 1022.0